Location: Kirkland Lake
(48.1510°N, 80.0330°W)
Time: 22:22:32
(UTC-04:00)

ISS - Pass Details

Date: 18 April 2026
Orbit: 414 x 424 km, 51.6° (Epoch: 15 May)

Event Time Altitude Azimuth Distance (km) Brightness Sun altitude
Exits shadow 05:37:52 - 198° (SSW) 2,045 -0.7 -8.1°
Reaches altitude 10° 05:39:32 10° 183° (S) 1,493 -1.2 -7.8°
Maximum altitude 05:41:55 18° 138° (SE) 1,097 -1.4 -7.5°
Drops below altitude 10° 05:44:19 10° 93° (E) 1,505 0.2 -7.1°
Sets 05:46:51 0° 74° (ENE) 2,376 2.4 -6.7°
